Regional Weather Roundup
Issued by NWS Albany, NY

Home | Current Version | Previous Version | Graphics & Text | Print | Product List | Glossary On
Versions: 1 2 3 4 5 6 7 8 9 10 11 12 13 14 15 16 17 18 19 20 21 22 23 24 25 26 27 28 29 30 31 32 33 34 35 36 37 38 39 40 41 42 43 44 45 46 47 48 49 50
000
ASUS41 KALY 210610
RWRALY

NEW YORK STATE HOURLY WEATHER ROUNDUP
NATIONAL WEATHER SERVICE ALBANY NY
200 AM EDT THU AUG 21 2014

NOTE: "FAIR" INDICATES FEW OR NO CLOUDS BELOW 12,000 FEET WITH NO
SIGNIFICANT WEATHER AND/OR NO OBSTRUCTIONS TO VISIBILITY.

NYZ032-033-038>043-046>054-057>066-NYZ062>081-210700-
EAST


CITY           SKY/WX    TMP DP  RH WIND       PRES   REMARKS
ALBANY         LGT RAIN  71  65  81 SE6       30.01F
GLENS FALLS    LGT RAIN  68  66  93 CALM      30.01S
POUGHKEEPSIE   MOCLDY    69  60  73 CALM      30.02S
NEWBURGH       CLOUDY    70  59  68 CALM      30.05S
MONTGOMERY     CLOUDY    67  58  72 CALM      30.03F
WHITE PLAINS   LGT RAIN  67  62  84 CALM      30.05R
ISLIP          FAIR      67  62  84 CALM      30.03F
NEW YORK CITY  CLOUDY    73  61  65 SW5       30.03S
CENTRAL PARK   CLOUDY    72  60  66 MISG      30.07R
$$

NYZ005>009-017-018-044>046-055-056-210700-
CENTRAL


CITY           SKY/WX    TMP DP  RH WIND       PRES   REMARKS
FULTON         FAIR      69  66  90 VRB5      29.94F FOG
SYRACUSE       CLOUDY    68  67  96 E5        29.94F
ROME           CLOUDY    68  67  96 E9        29.99S
ELMIRA         MOCLDY    64  64 100 CALM      29.97F FOG
BINGHAMTON     CLOUDY    67  65  93 S6        30.01F
MONTICELLO     MOCLDY    64  61  88 S5        30.07S
$$

NYZ026>034-041>043-210700-
NORTH


CITY           SKY/WX    TMP DP  RH WIND       PRES   REMARKS
WATERTOWN      FOG       67  63  87 CALM      29.94F VSB 3/4
FORT DRUM      NOT AVBL
MASSENA        LGT RAIN  67  67 100 NE3       29.99S
SARANAC LAKE   LGT RAIN  63  62  97 CALM      30.03S FOG
PLATTSBURGH    MOCLDY    64  63  96 CALM      29.99S
$$

NYZ001>004-010>016-019>021-210700-
WEST


CITY           SKY/WX    TMP DP  RH WIND       PRES   REMARKS
NIAGARA FALLS  FAIR      69  66  90 SW7       29.92F
BUFFALO        FAIR      69  64  84 S6        29.93F
DUNKIRK        MOCLDY    69  65  86 S8        29.94S
JAMESTOWN      FAIR      64  61  88 S6        30.00S
WELLSVILLE     MOCLDY    67  63  87 SW5       30.03S
ROCHESTER      MOCLDY    67  65  93 SW3       29.94R FOG
PENN YAN       MOCLDY    67  66  97 SW3       29.97R FOG
$$

             KEY
       WCI = WIND CHILL INDEX
       VSB = VISIBILITY
       HX  = HEAT INDEX
$$



USA.gov is the U.S. government's official web portal to all federal, state and local government web resources and services.